Regional Weather Roundup
Issued by NWS

Home | Current Version | Previous Version | Text Only | Print | Product List | Glossary Off
Versions: 1 2 3 4 5 6 7 8 9 10 11 12 13 14 15 16 17 18 19 20 21 22 23 24 25 26 27 28 29 30 31 32 33 34 35 36 37 38 39 40 41 42 43 44 45 46 47 48 49 50

000
ASUS43 KMPX 310810
RWRMN
WEATHER ROUNDUP FOR MINNESOTA
NATIONAL WEATHER SERVICE TWIN CITIES/CHANHASSEN MN
300 AM CDT FRI JUL 31 2015


NOTE: "FAIR" INDICATES FEW OR NO CLOUDS BELOW 12,000 FEET WITH NO
SIGNIFICANT WEATHER AND/OR OBSTRUCTIONS TO VISIBILITY. N/A MEANS
CURRENT SKY AND/OR WEATHER CONDITIONS ARE NOT AVAILABLE.

MNZ060>063-068>070-310900-
   Twin Cities Metro

CITY           SKY/WX    TMP DP  RH WIND       PRES   REMARKS
TWIN CITIES    CLEAR     70  60  70 W7        30.02S
ST PAUL        CLEAR     69  59  70 SW5       30.01S
CRYSTAL        CLEAR     71  58  63 NW9       30.01R
BLAINE         CLEAR     68  61  77 W8        30.02R
LAKEVILLE      CLEAR     63  61  94 CALM      30.03F
EDEN PRAIRIE   CLEAR     67  61  81 W7        30.02S
SOUTH ST PAUL  CLEAR     69  61  76 W8        30.01S
LAKE ELMO      FAIR      63  59  88 W5        30.02S
$$
MNZ001>005-007-008-013>017-022>024-027-028-310900-
   Northwest Minnesota

CITY           SKY/WX    TMP DP  RH WIND       PRES   REMARKS
BEMIDJI        CLEAR     59  50  70 W9        30.00S
HALLOCK        CLEAR     55  52  88 W5        29.99S
ROSEAU         CLEAR     59  54  82 W8        29.96S
WARROAD        CLEAR     57  54  88 W9        29.95S
THIEF RVR FALL CLEAR     57  50  77 W7        30.01S
CROOKSTON      CLEAR     55  52  88 W8        30.03R
FOSSTON        CLEAR     57  50  77 W9        30.02F
DETROIT LAKES  CLEAR     63  50  63 NW9       30.06S
MOORHEAD       CLEAR     57  54  88 CALM      30.06S
PARK RAPIDS    CLEAR     57  50  77 W7        30.03R
MAHNOMEN       FAIR      55  51  86 W7        30.03S
$$
MNZ006-009>011-018-025>026-310900-
   North Central Minnesota

CITY           SKY/WX    TMP DP  RH WIND       PRES   REMARKS
BAUDETTE       MOCLDY    59  52  77 W8        29.92F
FLAG ISLAND    CLEAR     61  55  82 W14       29.91R
INTL FALLS     CLEAR     57  55  93 W6        29.91R
WASKISH        CLEAR     64  55  72 W13G22    29.95S
BIG FORK       CLEAR     57  52  82 CALM      29.95S
LONGVILLE      CLEAR     63  52  67 W5        29.99S
GRAND RAPIDS   CLEAR     64  48  55 W9G18     29.97R
CRANE LAKE     PTCLDY    52  50  93 CALM      29.91R
ORR            PTCLDY    57  54  88 W3        29.90R
COOK           CLEAR     57  54  88 W5        29.92R
WALKER         FAIR      59  49  70 W7        30.00S
$$
MNZ012-019>021-037-310900-
   Northeast Minnesota

CITY           SKY/WX    TMP DP  RH WIND       PRES   REMARKS
DULUTH         PTCLDY    63  54  72 W8        29.93S
ELY            CLEAR     57  54  88 W5        29.89S
HIBBING        CLEAR     62  53  72 W7        29.93S
EVELETH        CLEAR     54  52  94 SW5       29.93S
DULUTH HARBOR  PTCLDY    70  59  68 W9        29.92R
TWO HARBORS    CLEAR     61  55  82 CALM      29.90R
SILVER BAY     CLEAR     61  55  82 CALM      29.88R
GRAND MARAIS     N/A     61  53  75 VRB6      29.82S
G MARAIS ARPRT   N/A     55  50  82 W6        29.87S
$$
MNZ029>031-032-039>041-046>048-054>057-064-310900-
   West Central Minnesota

CITY           SKY/WX    TMP DP  RH WIND       PRES   REMARKS
FERGUS FALLS   CLEAR     57  54  88 CALM      30.07S
WHEATON        CLEAR     57  54  88 SW6       30.11R
MORRIS         CLEAR     57  55  94 W6        30.08S
ALEXANDRIA     CLEAR     61  56  83 W5        30.09R
ELBOW LAKE     FAIR      58  55  88 W6        30.08S
WADENA         CLEAR     57  48  72 W6        30.05S
GLENWOOD       CLEAR     57  55  94 W6        30.09S
APPLETON       CLEAR     57  55  94 W5        30.09R
BENSON         CLEAR     59  54  82 N3        30.09R
ORTONVILLE     CLEAR     63  55  77 W5        30.10S
MADISON        CLEAR     61  54  77 W7        30.10S
WILLMAR        FAIR      61  57  88 W6        30.09S
$$
MNZ033>034-036-042>043-049>051-058-059-310900-
   Central Minnesota

CITY           SKY/WX    TMP DP  RH WIND       PRES   REMARKS
ST CLOUD       CLEAR     62  56  80 NW7       30.04R
SAUK CENTRE    FAIR      57  55  93 CALM      30.07S
PAYNESVILLE    CLEAR     56  55  96 SW5       30.07F
AITKIN         CLEAR     63  54  72 W5        29.98F
PINE RIVER     CLEAR     61  52  72 W5        30.04S
BRAINERD       FAIR      66  51  58 W8        30.02S
STAPLES        CLEAR     55  52  88 W7        30.04S
LONG PRAIRIE   FAIR      63  54  72 W5        30.07S
LITTLE FALLS   CLEAR     59  52  77 CALM      30.04S
LITCHFIELD     CLEAR     66  61  82 NW7       30.07S
BUFFALO        CLEAR     67  57  69 W7        30.05R
MAPLE LAKE     CLEAR     68  59  73 NW8       30.06R
$$
MNZ037-044-045-052-053-310900-
   East Central Minnesota

CITY           SKY/WX    TMP DP  RH WIND       PRES   REMARKS
PRINCETON      CLEAR     64  57  77 W7        30.03S
MORA           CLEAR     64  54  68 W7        30.02S
CAMBRIDGE      CLEAR     70  55  60 W8        30.00S
RUSH CITY      PTCLDY    64  56  74 W6        30.00S
MOOSE LAKE     CLEAR     63  54  72 W7        29.96R
HINCKLEY       FAIR      63  55  77 W7        29.98S
CLOQUET        PTCLDY    64  52  63 W8        29.95S
MCGREGOR       CLEAR     63  54  72 W7        29.99R
$$
MNZ071>073-080-081-089-090-097-098-310900-
   Southwest Minnesota

CITY           SKY/WX    TMP DP  RH WIND       PRES   REMARKS
MONTEVIDEO     CLEAR     63  57  82 NW6       30.11S
GRANITE FALLS  CLEAR     60  58  91 W3        30.11S
CANBY          CLEAR     62  56  79 W5        30.12S
MARSHALL       CLEAR     63  54  72 W7        30.12S
REDWOOD FALLS  CLEAR     66  59  78 W8        30.08S
OLIVIA         CLEAR     59  55  88 W7        30.08R
PIPESTONE      CLEAR     63  59  88 CALM      30.15S
WINDOM         CLEAR     61  57  88 CALM      30.12S
WORTHINGTON    PTCLDY    63  55  77 W5        30.14S
JACKSON        CLEAR     63  61  94 W3        30.13S
TRACY          CLEAR     66  59  77 W5        30.12S
SLAYTON        PTCLDY    64  60  84 CALM      30.14F
$$
MNZ065>067-074>077-082>085-091>093-310900-
   South Central Minnesota

CITY           SKY/WX    TMP DP  RH WIND       PRES   REMARKS
MANKATO        CLEAR     64  57  77 W7        30.07S
NEW ULM        CLEAR     61  59  94 W6        30.08S
ST JAMES       CLEAR     63  61  94 W3        30.10S
FAIRMONT       CLEAR     64  55  72 CALM      30.10S
GLENCOE        CLEAR     64  61  90 W5        30.05S
FARIBAULT      CLEAR     64  61  88 SW3       30.05F
OWATONNA       CLEAR     61  57  88 SW3       30.07S
WASECA         CLEAR     59  57  94 SW3       30.08S
ALBERT LEA     PTCLDY    66  63  88 W3        30.08S
$$
MNZ078>079-086>088-094>096-310900-
   Southeast Minnesota

CITY           SKY/WX    TMP DP  RH WIND       PRES   REMARKS
ROCHESTER      CLEAR     62  59  90 W8        30.07R
RED WING       CLEAR     61  59  94 CALM      30.01S
STANTON        CLEAR     65  60  82 SW3       30.02F
DODGE CENTER   PTCLDY    61  57  88 W6        30.06F
WINONA         CLEAR     66  61  82 CALM      30.02S
AUSTIN         PTCLDY    70  63  78 W7        30.07S
PRESTON        CLEAR     65  60  85 W8        30.07R
$$
ABBREVIATIONS USED IN REMARKS
   TC - TEMPERATURES IN CELSIUS
  WCI - WIND CHILL INDEX
   HX - HEAT INDEX
  VSB - VISIBILITY
$$


USA.gov is the U.S. government's official web portal to all federal, state and local government web resources and services.